FW1924 Weather Reports


Display with metric or nautical units.
time (UTC)temp
F
wind
direction
speed
MPH
gust
MPH
rain 1hr
in
rain 24hr
in
rain mn
in
humidity
%
barometer
mb
20260901134554 58 196 0.0 7.0 0.00 0.07 0.02 71 1008.5
20260901133045 58 184 0.0 9.0 0.00 0.07 0.02 71 1008.3
20260901131535 58 188 2.0 10.0 0.00 0.07 0.02 71 1008.3
20260901130029 58 205 2.0 11.0 0.00 0.07 0.02 71 1008.2
20260901124530 58 200 1.0 12.0 0.00 0.07 0.02 71 1008.1
20260901123033 58 217 2.0 11.0 0.00 0.07 0.02 72 1008.2
20260901121506 58 186 7.0 19.0 0.00 0.07 0.02 72 1008.2
20260901114555 58 207 7.0 15.0 0.00 0.07 0.02 73 1008.0
20260901113012 58 186 6.0 14.0 0.00 0.07 0.02 74 1008.0
20260901111510 58 185 4.0 14.0 0.00 0.07 0.02 74 1008.1
20260901110002 58 228 6.0 14.0 0.00 0.07 0.02 75 1008.2
20260901104553 57 182 5.0 14.0 0.00 0.07 0.02 76 1008.3
20260901103146 57 203 2.0 12.0 0.00 0.07 0.02 77 1008.4
20260901101545 57 215 0.0 5.0 0.01 0.07 0.02 77 1008.5
20260901100043 57 194 0.0 1.0 0.01 0.07 0.02 76 1008.6
20260901094629 58 176 0.0 7.0 0.01 0.07 0.02 76 1008.6
20260901093027 58 192 0.0 7.0 0.01 0.07 0.02 75 1008.5
20260901091519 58 194 1.0 11.0 0.00 0.06 0.01 76 1008.4
20260901090013 58 191 0.0 0.0 0.00 0.06 0.01 74 1008.5
20260901084609 59 170 0.0 7.0 0.00 0.06 0.01 74 1008.4
20260901083016 59 166 5.0 13.0 0.00 0.06 0.01 73 1008.5
20260901081505 59 170 4.0 11.0 0.00 0.06 0.01 73 1008.6
20260901080008 60 157 9.0 15.0 0.01 0.06 0.01 72 1008.5
20260901074558 60 168 1.0 9.0 0.01 0.06 0.01 73 1008.7
20260901073027 60 169 7.0 14.0 0.01 0.06 0.01 73 1008.7
20260901071613 60 196 8.0 16.0 0.01 0.06 0.01 73 1008.8
20260901070019 60 174 0.0 4.0 0.00 0.05 0.00 74 1008.7
20260901064518 60 166 0.0 11.0 0.00 0.05 0.00 74 1008.7
20260901063008 59 185 5.0 16.0 0.00 0.05 0.00 74 1008.7
20260901061626 59 0.0 0.0 0.00 0.05 0.00 75 1008.9
20260901060057 60 155 1.0 11.0 0.00 0.05 0.00 75 1008.8
20260901054548 60 188 4.0 10.0 0.00 0.05 0.05 75 1008.9
20260901053047 60 147 5.0 10.0 0.00 0.05 0.05 75 1008.7
20260901051538 60 170 4.0 10.0 0.00 0.05 0.05 75 1009.3
20260901050031 60 174 4.0 10.0 0.00 0.05 0.05 74 1009.7
20260901044524 60 196 8.0 15.0 0.00 0.05 0.05 73 1009.6
20260901043023 60 171 12.0 19.0 0.01 0.05 0.05 73 1009.2
20260901041504 60 184 6.0 15.0 0.01 0.05 0.05 73 1009.0
20260901040056 60 225 4.0 12.0 0.01 0.05 0.05 74 1008.9
20260901034549 60 197 9.0 18.0 0.01 0.05 0.05 75 1008.9
20260901033049 60 184 7.0 16.0 0.00 0.04 0.04 78 1008.9
20260901031650 60 190 9.0 19.0 0.00 0.04 0.04 77 1008.6
20260901030049 60 222 8.0 16.0 0.01 0.04 0.04 76 1008.5
20260901024552 60 189 7.0 16.0 0.01 0.04 0.04 77 1008.5
20260901023038 60 171 7.0 17.0 0.01 0.04 0.04 77 1008.4
20260901021524 60 162 11.0 16.0 0.01 0.04 0.04 76 1008.4
20260901020016 60 166 8.0 16.0 0.00 0.03 0.03 78 1008.6
20260901014505 60 158 9.0 21.0 0.00 0.03 0.03 77 1008.9
20260901013059 60 167 10.0 19.0 0.00 0.03 0.03 78 1009.2
20260901011549 59 190 7.0 18.0 0.01 0.03 0.03 79 1009.2
20260901010038 59 174 10.0 19.0 0.01 0.03 0.03 80 1009.3
20260901004529 60 200 7.0 12.0 0.01 0.03 0.03 82 1009.3
20260901003020 60 154 10.0 19.0 0.02 0.03 0.03 82 1009.3
20260901001513 60 163 5.0 13.0 0.01 0.02 0.02 82 1009.4
20260901000003 60 180 1.0 11.0 0.02 0.02 0.02 82 1009.2
20260831234604 61 228 7.0 14.0 0.02 0.02 0.02 82 1008.5
20260831233048 61 190 11.0 17.0 0.01 0.01 0.01 80 1007.9
20260831231551 62 197 8.0 20.0 0.01 0.01 0.01 75 1007.7
20260831230039 65 219 12.0 36.0 0.00 0.00 0.00 67 1007.2
20260831224557 72 264 19.0 39.0 0.00 0.00 0.00 51 1006.2
20260831223059 76 209 12.0 23.0 0.00 0.00 0.00 42 1005.5
20260831221548 78 200 17.0 27.0 0.00 0.00 0.00 43 1005.0
20260831220039 80 158 12.0 24.0 0.00 0.00 0.00 41 1004.4
20260831214624 82 163 16.0 22.0 0.00 0.00 0.00 34 1004.4
20260831213028 83 134 7.0 17.0 0.00 0.00 0.00 34 1004.5
20260831211614 83 142 6.0 15.0 0.00 0.00 0.00 35 1004.7
20260831210006 83 136 5.0 19.0 0.00 0.00 0.00 36 1004.8
20260831204556 84 152 7.0 17.0 0.00 0.00 0.00 36 1004.8
20260831203047 85 153 8.0 16.0 0.00 0.00 0.00 36 1005.0
20260831201540 84 122 9.0 21.0 0.00 0.00 0.00 36 1005.1
20260831200034 85 153 3.0 20.0 0.00 0.00 0.00 36 1005.5
20260831194536 83 166 10.0 23.0 0.00 0.00 0.00 36 1006.0
20260831193022 82 138 7.0 22.0 0.00 0.00 0.00 37 1006.2
20260831191519 82 163 8.0 19.0 0.00 0.00 0.00 39 1006.3
20260831190127 80 153 12.0 21.0 0.00 0.00 0.00 39 1006.4
20260831184549 79 155 14.0 22.0 0.00 0.00 0.00 42 1006.6
20260831183037 77 163 10.0 15.0 0.00 0.00 0.00 45 1006.8
20260831181530 75 123 3.0 12.0 0.00 0.00 0.00 46 1007.2
20260831180028 75 123 11.0 21.0 0.00 0.00 0.00 46 1007.3
20260831174529 76 138 11.0 17.0 0.00 0.00 0.00 47 1007.3
20260831173034 76 161 11.0 17.0 0.00 0.00 0.00 48 1007.3
20260831171522 75 171 8.0 15.0 0.00 0.00 0.00 52 1007.4
20260831170011 74 141 4.0 15.0 0.00 0.00 0.00 53 1007.6
20260831164509 74 146 3.0 16.0 0.00 0.00 0.00 51 1007.8
20260831163053 74 150 5.0 14.0 0.00 0.00 0.00 49 1007.6
20260831161550 72 163 3.0 11.0 0.00 0.00 0.00 52 1007.3
20260831160038 70 169 9.0 16.0 0.00 0.00 0.00 55 1007.0
20260831154526 68 182 0.0 0.0 0.00 0.00 0.00 65 1007.1
20260831153020 66 173 0.0 2.0 0.00 0.00 0.00 67 1007.4
20260831151512 65 165 0.0 0.0 0.00 0.00 0.00 69 1007.5
20260831144559 64 139 0.0 4.0 0.00 0.00 0.00 72 1007.8
20260831143107 62 135 1.0 9.0 0.00 0.00 0.00 73 1007.8
20260831141548 61 180 0.0 3.0 0.00 0.00 0.00 72 1007.8
20260831140039 60 187 0.0 0.0 0.00 0.00 0.00 70 1007.7